Theta_e
298 291 290 291 293 294 294 295 293 292 290 289 288 288 285 287 286 288 287 290 290 290 288 288 290 291 292 293 291 289 289 290 290 291 292 291 292 294 295 296 298 299 303 306 307 309 313 317 320 321 322 322 321 322 322 322 323 324 325 324 324 325 326 327 326 326 327 326 326 326 326 327 327 327 328 329 330 330 329 328 327 326 326 325 324 322
297 290 291 294 295 295 295 294 292 292 290 289 288 287 286 286 285 286 290 290 288 290 288 287 287 289 290 291 289 288 289 291 292 292 292 293 292 293 294 295 296 298 298 300 302 305 307 313 316 318 320 319 319 320 321 322 323 324 324 324 325 324 325 327 328 327 326 328 329 328 328 326 326 326 326 329 330 330 330 329 328 328 327 326 325 324
290 289 292 294 296 296 295 292 292 291 289 288 287 287 285 285 287 287 287 289 288 289 287 285 287 290 291 292 290 288 290 292 293 294 295 294 293 292 292 293 295 295 296 297 300 301 306 310 313 316 318 320 321 321 321 323 323 323 324 325 325 325 325 326 327 327 327 327 327 328 325 327 322 320 325 325 325 328 329 329 330 329 328 326 325 324
285 289 293 295 296 295 293 293 291 289 288 287 286 283 284 286 286 285 286 288 288 286 286 285 285 288 290 288 288 289 291 292 292 292 294 294 294 294 294 294 294 295 296 296 298 300 302 306 311 313 315 318 319 320 320 321 322 323 323 324 325 325 325 326 326 325 327 326 326 324 321 323 325 320 316 322 322 325 326 327 328 329 328 327 325 325
287 290 294 295 295 295 292 292 290 288 287 288 287 284 284 285 286 287 285 287 286 287 284 285 286 286 287 289 289 290 290 291 291 290 291 292 293 294 293 293 294 294 295 296 297 297 297 301 308 312 315 316 317 319 320 321 322 324 323 324 325 325 324 325 325 324 324 321 319 318 317 317 319 316 317 318 322 324 323 324 324 326 325 325 325 325
289 291 295 293 293 293 292 290 290 289 285 286 286 287 287 287 288 288 287 287 285 285 284 287 281 280 280 283 287 292 287 289 290 291 292 293 293 291 292 293 294 294 294 296 297 298 298 300 304 309 311 313 316 318 320 322 323 323 324 323 323 324 324 325 324 324 323 323 324 321 323 322 322 323 321 321 323 321 322 324 321 321 321 323 324 325
290 291 294 292 291 291 291 290 291 290 286 284 286 289 289 288 289 288 286 286 281 279 283 284 283 275 281 283 285 284 282 287 288 287 291 293 294 292 293 294 294 294 294 293 294 294 295 296 299 305 309 312 315 317 319 319 320 322 323 322 322 323 323 323 323 323 321 323 324 324 325 325 323 322 321 316 315 319 317 317 319 320 316 320 324 324
289 289 290 292 291 290 289 287 290 290 287 283 288 288 290 289 288 287 287 287 280 281 285 282 281 278 280 287 284 280 283 285 286 287 288 290 292 293 294 294 294 294 293 294 294 294 295 296 298 302 308 311 314 316 314 316 318 319 320 321 321 322 320 322 322 322 323 324 323 322 322 321 322 321 317 311 312 310 310 315 314 314 315 317 320 323
291 286 289 288 289 289 288 290 291 290 287 286 290 291 289 290 289 288 288 285 283 284 280 280 284 281 276 281 283 282 284 286 287 290 290 290 291 292 294 294 294 294 293 293 294 294 294 296 297 301 305 310 311 310 313 315 317 318 319 318 319 320 320 320 320 321 322 323 323 323 322 319 315 314 312 308 305 310 308 312 308 312 312 315 316 318
288 290 290 292 290 288 290 290 290 291 287 289 291 291 289 288 287 288 284 285 284 280 278 279 280 277 278 279 281 280 283 284 286 288 291 291 292 291 292 292 292 291 291 292 293 294 295 295 296 299 301 303 308 307 307 307 307 311 314 315 316 319 319 319 319 320 321 321 320 321 320 320 314 310 305 308 309 307 308 311 309 311 313 314 315 315
287 290 295 290 289 291 290 289 291 291 290 293 292 290 288 285 284 282 282 281 281 275 278 279 279 280 277 280 285 285 284 285 289 288 288 288 287 287 289 290 291 292 292 293 293 294 294 294 294 295 301 302 299 298 300 303 306 309 312 314 316 318 318 317 318 318 319 320 319 321 319 318 314 311 311 309 305 307 308 311 309 312 311 311 311 310
287 289 289 290 290 291 291 291 292 292 292 293 288 285 287 285 283 282 280 282 277 273 275 276 278 278 276 277 282 285 283 281 286 288 290 289 289 288 287 288 289 290 291 292 293 294 294 296 295 295 297 298 298 296 298 299 300 305 309 312 314 313 315 315 316 316 318 318 318 318 317 317 315 313 313 313 310 309 311 311 311 307 307 305 305 305
285 286 286 289 291 291 290 290 290 292 292 290 287 287 284 278 278 276 278 276 275 274 279 277 278 279 280 281 284 283 283 285 283 287 289 289 289 288 288 289 290 290 290 293 293 293 294 296 297 296 296 294 296 300 299 300 300 301 304 308 312 313 311 313 314 315 315 316 316 317 316 316 314 314 314 313 311 309 310 309 309 306 306 300 302 299
282 281 285 287 290 290 291 287 285 285 288 287 287 285 283 276 275 274 271 269 270 276 277 278 279 278 278 281 289 290 293 292 288 286 287 288 289 290 289 289 290 290 290 292 292 292 293 294 294 294 295 297 296 296 296 296 297 298 301 304 309 312 309 309 310 313 314 314 314 315 315 315 313 313 313 313 312 308 310 309 309 308 306 304 302 300
278 278 285 287 285 290 290 289 289 286 286 288 287 289 284 279 274 272 268 273 274 277 275 277 276 273 277 282 282 288 291 289 284 285 285 285 285 286 286 288 288 288 289 288 290 293 293 293 291 293 293 294 294 294 295 295 295 295 298 301 304 307 304 307 310 311 313 313 312 313 314 314 314 314 312 312 310 309 308 308 308 304 302 302 298 301
282 281 283 287 287 289 291 289 291 291 289 286 285 288 284 285 283 280 275 274 271 273 275 275 276 277 281 282 286 287 286 287 287 286 285 288 288 288 291 292 292 291 290 289 290 291 291 290 290 290 291 292 293 294 294 295 294 295 296 296 299 304 304 305 306 309 312 311 310 311 312 312 312 311 311 308 308 308 309 308 307 303 301 299 298 296
281 280 285 286 288 287 288 289 291 291 284 286 285 285 286 287 285 279 276 277 277 275 273 274 277 280 280 286 290 284 283 288 286 286 285 288 287 288 291 291 291 292 290 289 291 289 290 289 289 289 290 290 290 292 294 294 294 295 296 297 301 302 300 303 305 308 308 308 309 309 310 310 309 310 309 309 307 306 305 305 303 302 298 297 297 296
282 280 284 284 286 287 287 287 290 287 289 285 281 285 287 289 287 284 278 271 270 272 274 272 277 277 276 279 283 284 286 288 287 287 286 285 284 288 292 292 292 293 292 290 289 288 289 289 290 290 290 289 291 293 292 294 295 296 296 298 302 303 304 303 304 305 306 307 307 307 308 309 310 309 308 307 305 303 302 301 299 298 297 295 295 295
285 278 284 284 284 287 286 289 289 289 289 288 286 290 288 281 280 280 278 271 270 268 266 269 274 275 276 281 281 282 284 290 291 288 286 288 288 290 291 291 291 291 290 292 291 290 290 290 291 290 291 291 289 289 288 294 295 295 295 297 303 304 306 305 305 305 305 307 307 307 307 307 306 306 305 304 303 302 301 299 297 296 295 293 293 293
285 279 279 284 284 287 286 286 284 284 288 288 288 286 287 285 282 278 279 275 275 270 269 270 272 276 279 279 282 288 287 287 288 285 287 289 290 291 291 291 292 292 293 293 292 291 290 289 288 289 290 292 292 292 292 296 298 299 300 301 303 304 305 305 304 304 305 305 305 305 305 305 305 304 303 302 302 302 299 297 296 294 294 293 292 292
283 281 275 281 285 285 283 284 284 286 284 284 285 282 285 283 284 281 280 276 276 269 266 268 269 273 279 282 285 289 290 290 288 289 287 288 289 289 290 291 291 291 292 292 292 291 290 289 289 289 288 289 288 290 293 297 300 300 302 304 304 305 305 305 304 304 303 303 304 304 303 302 302 301 301 301 300 299 297 296 294 293 292 290 289 288
283 282 279 280 281 280 280 282 284 286 289 287 286 284 286 281 279 279 279 279 272 274 271 265 273 274 282 283 289 290 291 290 287 288 289 289 289 288 289 289 290 291 290 290 289 288 289 287 287 288 288 288 289 291 294 297 299 300 302 305 306 306 306 305 304 303 303 303 303 302 301 300 299 299 299 298 298 296 294 292 291 289 289 290 287 288
282 281 280 274 279 283 284 286 285 285 285 287 286 286 288 285 282 278 276 276 275 275 273 270 271 276 284 283 286 289 289 286 284 285 287 289 288 288 288 288 289 291 291 291 289 289 288 287 288 288 287 288 288 291 291 295 300 301 302 302 303 304 304 305 303 303 302 302 300 299 298 297 296 296 295 295 293 292 291 289 288 288 289 288 287 286
290 279 277 276 278 281 283 283 284 284 287 286 286 283 284 285 286 284 281 280 281 276 276 274 272 276 281 281 283 284 281 281 283 282 286 288 289 288 287 287 289 292 290 290 289 288 287 287 287 286 287 288 287 288 291 296 299 300 301 301 301 301 301 301 301 300 300 298 297 296 295 295 294 294 293 292 291 290 288 288 288 287 288 287 286 286
282 279 282 271 271 276 278 282 283 283 285 282 282 283 284 284 281 281 280 280 279 279 280 276 276 274 283 280 282 281 283 284 285 285 285 287 288 288 289 288 290 292 291 289 290 290 287 286 287 289 290 290 288 286 288 293 296 297 298 297 299 298 298 298 298 298 297 296 294 294 294 292 292 292 291 290 288 288 287 287 287 287 287 286 286 285
286 281 282 275 274 272 273 275 278 282 281 282 282 283 284 286 282 282 280 279 278 277 278 273 278 280 281 282 286 285 284 286 286 287 285 286 287 288 290 291 291 291 291 290 289 288 289 290 289 287 287 287 285 287 288 289 292 294 295 296 295 296 295 295 295 296 295 294 294 292 292 291 291 290 289 288 288 287 287 286 286 286 285 286 285 284
281 283 285 284 282 280 282 284 285 285 283 284 285 286 285 286 285 285 281 278 281 279 277 282 284 284 283 284 283 286 285 287 289 288 288 287 286 287 289 290 290 290 291 291 291 290 288 287 288 289 288 289 287 286 287 288 290 292 294 293 293 294 294 293 294 294 294 293 293 291 291 290 290 289 288 287 287 286 285 285 285 285 284 284 284 284
282 283 284 284 284 285 282 282 283 289 285 287 286 285 286 285 285 285 284 283 283 279 279 285 283 281 283 284 283 284 286 284 286 287 287 287 287 289 291 289 291 288 288 288 288 290 290 290 289 288 288 287 288 286 287 287 288 291 293 293 292 292 293 292 292 292 292 292 291 291 289 288 287 287 287 286 285 285 284 284 284 283 283 283 283 283
286 285 285 284 283 282 281 283 285 287 287 286 286 286 284 285 284 284 285 287 284 284 282 283 283 284 284 285 286 287 287 288 288 288 288 287 286 288 288 289 289 289 289 289 291 291 290 290 290 289 288 288 287 287 287 287 287 287 288 291 292 291 292 291 292 291 291 290 290 288 286 285 285 285 285 284 284 284 283 283 283 282 282 282 282 283
288 283 284 285 283 282 282 283 285 286 284 284 284 285 286 285 285 286 287 288 286 286 287 284 282 282 285 284 286 288 287 287 286 285 284 287 288 290 289 290 290 291 292 292 293 292 291 291 289 289 288 287 288 288 288 288 288 288 289 289 289 290 290 290 290 290 289 288 287 285 285 285 285 284 284 284 283 283 283 282 282 282 282 282 282 281
288 280 286 282 280 280 282 283 284 284 285 284 283 285 286 286 287 287 287 287 286 286 287 284 284 286 286 287 288 288 288 286 287 287 289 290 288 289 289 290 292 293 294 294 294 293 292 290 289 289 288 289 288 288 289 289 288 288 288 288 288 288 288 289 288 287 287 286 285 285 284 284 284 283 283 283 283 282 282 282 282 282 281 281 281 281
284 277 280 280 278 275 281 281 281 281 283 282 282 283 284 284 283 285 284 285 284 285 285 284 284 286 286 288 288 287 286 287 288 289 290 290 287 287 289 290 291 293 294 294 294 292 291 290 289 289 290 290 289 288 289 289 288 288 288 288 287 287 285 286 286 286 286 285 284 284 284 284 283 283 282 282 282 282 282 282 281 281 281 280 280 280
283 280 278 278 277 275 278 281 280 280 281 280 282 284 285 285 286 287 288 287 288 289 285 284 285 287 288 287 288 287 286 287 288 290 290 288 285 286 289 290 291 292 293 294 294 293 293 292 292 292 291 290 290 290 290 290 289 289 289 288 287 286 285 286 286 285 285 284 284 283 283 283 283 282 282 282 282 281 281 281 281 280 280 280 279 279
285 285 280 282 280 274 274 280 280 280 276 279 290 290 288 285 285 284 285 287 288 289 289 291 290 286 287 287 289 289 287 289 290 292 292 292 289 284 285 288 291 293 293 294 294 294 294 294 293 293 292 292 291 291 290 290 290 289 288 287 286 285 285 285 285 284 284 283 283 283 283 282 282 282 282 281 281 281 281 280 280 279 279 279 279 279
287 287 283 280 278 273 274 279 280 276 278 289 286 290 291 289 288 287 288 289 289 290 290 289 290 287 288 290 291 291 291 291 288 287 289 287 288 289 289 288 289 291 292 293 293 293 294 294 294 293 291 291 291 290 289 289 289 287 287 286 285 285 285 285 284 284 283 283 283 282 282 282 282 281 281 281 281 280 280 280 279 279 279 279 279 279
287 287 280 274 275 275 274 279 274 277 286 284 282 282 286 290 289 287 285 287 287 288 289 289 291 292 290 289 288 287 288 287 286 285 286 287 287 290 289 290 290 290 291 292 293 293 294 294 294 293 293 290 289 289 289 289 288 287 286 285 285 285 284 284 284 283 283 282 282 282 282 282 281 281 281 280 280 280 279 279 279 278 278 277 277 277
289 285 284 277 275 276 273 278 278 280 280 283 285 284 287 285 283 285 283 286 289 290 289 290 291 291 291 289 288 288 286 286 287 291 287 288 289 288 291 292 292 292 292 293 293 293 293 292 291 291 289 288 289 289 289 288 287 286 285 284 284 284 283 283 283 283 283 282 282 282 282 282 281 281 280 280 280 279 279 278 277 277 277 277 277 277
288 286 282 283 274 273 274 270 270 274 276 282 285 284 289 288 290 288 286 286 290 291 291 290 290 291 290 288 287 286 288 287 287 291 290 289 290 292 290 290 289 289 290 290 289 288 289 289 288 287 290 288 288 288 288 287 287 285 284 284 283 283 283 283 283 283 283 282 282 282 282 281 281 281 280 280 279 279 279 278 278 277 277 278 277 277
281 282 284 286 277 272 271 273 273 274 280 281 284 286 287 289 288 287 281 283 288 289 290 290 290 290 290 290 286 286 287 286 288 291 288 290 291 291 292 291 290 290 289 287 288 288 287 287 288 287 288 288 288 287 287 286 286 285 284 284 283 283 283 283 283 283 282 282 282 282 281 281 281 280 280 279 279 279 278 278 277 277 277 277 277 277
282 278 280 276 271 277 277 273 276 272 279 281 283 283 287 287 291 287 273 281 285 289 290 289 290 290 290 290 287 288 288 287 289 290 289 290 290 289 290 292 291 290 287 285 285 286 286 286 287 286 287 288 288 287 286 286 286 285 285 284 284 283 283 283 284 283 283 282 282 281 281 281 280 280 279 279 278 278 278 277 276 276 276 276 276 276
278 275 278 281 279 277 281 271 269 277 282 280 283 283 286 291 290 281 277 285 284 287 289 290 290 291 290 287 287 287 289 293 293 289 288 283 287 287 286 286 285 284 286 284 286 285 286 287 289 289 289 289 288 287 287 286 286 285 285 284 283 283 284 284 283 283 282 281 281 280 280 280 279 279 279 278 278 277 276 276 276 275 275 275 275 275
275 276 272 275 277 279 279 279 277 278 282 286 281 286 289 288 277 280 288 281 284 283 283 288 290 288 287 288 288 290 293 292 289 283 285 285 285 284 283 282 283 284 281 282 283 284 285 285 286 286 285 285 287 287 286 286 286 286 285 284 283 284 284 283 282 282 281 280 280 279 279 278 278 278 277 277 277 276 275 275 275 275 275 274 274 274
282 281 278 280 277 273 269 276 271 274 282 287 286 285 286 287 284 284 280 283 282 282 284 283 286 287 286 287 288 290 290 289 287 287 287 285 284 285 285 284 284 285 284 284 284 283 284 285 285 285 284 284 285 286 286 286 286 285 284 284 284 283 282 281 281 280 280 279 278 277 277 277 276 276 276 276 276 275 274 274 274 274 274 274 274 274
285 280 275 279 282 280 277 276 279 285 285 288 290 287 288 287 284 287 286 289 284 281 284 285 285 285 285 288 286 287 287 287 285 284 283 284 284 283 282 282 281 281 281 281 282 282 282 284 284 284 282 283 285 285 286 286 286 285 284 284 281 280 280 280 279 279 278 277 276 275 275 275 274 275 275 274 274 274 274 273 273 273 273 274 274 273
285 286 286 283 280 280 281 284 284 285 289 290 292 289 293 293 285 286 289 289 288 284 282 284 287 285 284 286 285 285 284 285 287 285 285 286 284 284 284 283 282 282 282 282 282 281 281 283 282 281 280 281 283 284 285 285 286 284 283 282 279 279 279 278 277 277 276 275 274 273 273 273 273 273 273 273 274 273 273 273 273 273 273 274 274 273
284 285 282 285 282 284 284 286 283 279 281 287 284 282 290 293 284 283 286 289 285 286 285 288 286 285 285 284 286 282 284 284 283 283 283 283 282 282 280 280 279 279 279 279 279 280 280 279 278 279 280 278 280 282 283 284 285 284 283 279 278 278 278 277 276 275 274 273 273 273 272 272 272 272 273 273 273 274 274 274 274 273 273 273 273 272
283 283 285 282 282 285 282 289 285 285 283 286 289 284 281 284 286 283 283 285 284 283 284 283 283 282 283 282 286 287 285 282 282 283 282 281 282 281 281 281 280 279 279 278 278 277 277 276 277 278 277 279 277 279 279 279 280 279 277 276 277 277 277 276 275 274 273 272 272 272 272 272 272 272 272 272 272 273 273 274 274 273 272 272 272 271
283 284 287 280 283 285 286 285 283 284 284 286 288 286 288 287 284 284 284 282 280 281 283 284 281 281 281 283 284 285 284 281 283 283 282 283 284 282 281 280 279 279 276 276 275 275 275 276 278 277 277 279 277 276 276 276 275 274 275 276 276 276 275 275 274 273 272 271 271 271 272 272 273 272 272 272 272 272 272 273 274 273 272 271 272 271
284 287 283 283 284 284 283 280 282 286 286 285 284 285 287 288 289 287 284 282 282 284 283 282 281 282 283 284 283 283 282 282 282 282 282 281 281 280 280 279 278 277 275 275 274 275 279 276 276 276 276 277 274 274 273 273 272 273 275 275 275 275 275 274 273 272 271 271 271 271 272 272 272 272 271 271 271 272 273 273 273 273 272 273 273 273
285 284 282 283 281 283 285 285 283 282 280 285 286 288 289 286 284 285 282 283 283 285 283 284 283 280 280 280 281 282 284 282 281 281 281 281 281 279 278 278 276 275 274 273 273 273 274 274 276 276 276 275 273 273 273 271 271 272 274 274 274 275 275 273 272 271 271 271 271 271 271 271 271 271 270 271 270 270 270 273 274 273 272 271 274 275
287 284 284 284 284 284 287 284 288 290 289 285 289 289 286 282 284 285 286 287 285 285 285 285 284 283 283 282 280 281 281 282 281 280 279 279 279 278 278 278 277 276 276 273 273 272 273 273 273 273 273 273 271 272 271 270 270 271 272 273 274 275 274 273 272 272 271 271 271 271 271 271 270 270 270 270 270 270 271 271 273 275 275 275 276 276
Wind_Speed
3 8 12 14 10 9 7 9 9 4 1 1 1 1 3 3 4 2 2 1 1 1 7 7 7 9 11 11 5 1 0 3 5 9 9 6 7 8 8 9 11 11 16 6 5 6 8 10 10 10 9 9 8 8 8 9 10 11 11 9 12 9 8 8 8 7 8 8 6 6 9 10 6 7 6 6 6 6 5 5 5 5 6 5 4 4
4 8 11 5 3 8 7 6 5 6 3 5 5 2 3 3 3 2 1 2 3 5 3 2 5 10 12 11 6 1 1 7 10 11 9 10 9 8 10 12 11 14 5 3 5 6 6 8 9 9 9 8 10 10 9 12 12 11 10 11 11 8 9 10 10 10 9 9 10 8 8 6 6 5 7 7 6 6 5 5 5 6 5 5 5 5
8 10 2 2 5 6 6 5 3 6 7 5 6 5 4 6 4 6 2 2 1 3 8 0 4 10 12 11 5 3 6 6 7 9 12 10 9 9 9 10 10 7 11 6 8 5 7 9 9 9 10 11 13 11 12 12 11 11 11 11 10 9 10 10 10 9 10 8 7 8 5 8 4 4 5 5 4 4 5 5 5 5 5 5 4 5
7 8 5 5 6 8 6 7 5 4 3 5 4 4 6 2 2 4 2 1 1 2 1 0 4 9 9 6 7 8 7 8 6 6 9 9 11 12 13 11 11 13 12 11 12 11 8 8 8 8 10 11 9 10 10 10 12 11 11 11 11 10 10 10 10 11 9 8 7 6 5 5 6 5 4 4 3 4 4 5 5 6 6 5 5 5
7 4 6 10 8 11 12 10 8 7 7 4 5 4 5 4 4 5 2 1 0 1 2 1 4 7 5 8 7 6 8 7 6 4 6 8 9 9 5 5 9 12 11 12 11 7 6 7 10 13 12 9 10 12 12 12 12 10 13 12 12 11 11 10 10 10 7 5 4 3 2 2 1 1 2 3 5 5 4 4 5 6 4 4 6 6
6 4 9 11 9 10 11 12 11 6 6 5 5 8 8 5 6 2 1 3 0 2 1 1 2 6 4 6 10 10 1 5 4 5 10 11 11 7 10 14 11 8 9 11 12 11 9 9 7 7 8 10 11 12 12 11 12 11 11 11 10 9 9 10 10 10 8 8 9 7 7 7 7 8 6 9 7 4 4 5 2 3 4 4 5 5
7 4 12 13 12 11 11 10 7 7 6 4 6 9 9 7 2 2 1 3 1 4 2 1 9 6 5 3 7 5 3 9 6 3 9 10 11 8 11 13 11 11 10 8 8 6 6 8 7 8 9 11 12 13 9 9 10 11 10 9 10 10 9 8 8 9 8 8 8 11 12 10 9 9 6 1 2 3 4 3 4 4 4 4 5 5
4 6 7 10 12 12 11 12 8 10 7 7 1 5 7 4 4 5 6 8 4 1 1 2 2 4 6 9 2 2 2 7 7 8 11 11 12 12 12 13 11 11 11 10 11 10 9 8 10 13 14 12 14 11 8 9 8 10 11 10 11 9 9 8 7 9 10 11 9 9 9 8 9 9 7 4 4 3 3 4 4 3 3 3 4 4
13 6 12 10 10 11 14 9 4 9 7 1 2 6 5 6 7 6 6 5 1 1 7 1 0 1 6 7 4 1 4 7 9 11 10 11 14 14 14 13 12 12 10 9 10 10 11 12 12 11 11 11 9 7 8 10 10 9 9 9 7 9 8 7 9 10 10 10 10 10 8 7 5 4 4 3 2 4 3 3 2 3 3 2 2 2
2 10 16 16 12 13 6 6 7 10 6 5 4 7 6 7 5 3 4 4 0 1 8 5 3 4 8 5 4 2 1 7 8 10 12 12 11 10 11 11 10 8 7 8 11 9 9 8 7 6 4 3 7 6 5 5 5 5 6 7 8 9 8 8 9 10 10 10 8 9 8 10 6 4 3 4 4 3 4 4 4 3 4 3 4 3
2 4 2 6 10 5 6 5 6 10 5 3 7 5 4 6 3 2 4 2 2 4 7 5 3 3 6 5 8 6 7 8 9 7 6 6 5 7 9 10 9 9 9 9 9 9 8 4 4 4 7 6 3 4 5 5 5 6 7 7 9 9 8 8 9 10 11 9 9 9 9 9 8 7 7 5 3 4 4 5 4 4 4 3 4 4
2 1 4 3 3 2 4 4 3 2 4 10 2 4 5 2 4 2 2 2 3 6 5 2 2 2 8 4 5 9 4 4 7 8 9 7 6 7 6 6 7 7 7 7 6 8 6 4 3 3 6 6 6 5 5 5 5 6 7 7 9 7 8 7 8 9 10 9 10 8 9 9 9 10 8 9 8 7 7 7 7 4 4 3 3 3
1 3 2 2 3 8 4 6 0 2 4 3 4 7 9 3 2 5 0 5 7 6 1 1 1 1 10 7 8 7 8 8 8 10 9 8 7 7 6 6 6 5 4 5 6 5 4 6 6 6 6 5 6 8 8 8 6 5 5 7 9 9 7 8 7 9 9 9 9 9 9 8 8 9 9 9 8 7 8 7 7 6 5 4 4 3
6 2 1 3 1 4 7 12 4 3 6 5 8 8 9 5 6 7 3 1 5 6 3 1 0 4 3 7 13 16 18 15 8 10 11 9 10 9 8 7 6 4 4 4 4 4 5 5 5 4 5 5 5 4 4 4 5 5 6 6 8 9 7 6 7 8 9 9 9 8 9 9 9 9 9 8 8 8 7 8 9 8 7 6 6 5
8 5 9 8 4 3 4 5 7 5 5 7 1 8 6 5 4 5 3 7 7 8 2 4 1 6 5 5 2 10 10 7 4 6 6 7 8 8 7 7 6 5 4 4 4 5 5 4 4 4 3 3 2 2 2 1 2 2 4 5 7 7 6 7 8 7 9 8 8 7 8 8 8 9 8 7 7 8 8 6 7 5 5 6 5 6
16 4 4 2 1 4 10 3 4 8 4 5 3 4 6 10 6 4 5 3 2 1 1 1 6 4 5 3 7 6 7 9 7 8 5 9 5 5 6 6 6 4 4 4 4 4 4 4 3 3 3 3 2 2 1 1 2 3 4 4 4 6 6 6 7 7 8 8 7 8 9 8 8 7 6 6 5 6 6 7 8 7 5 6 6 4
3 7 0 6 0 2 3 4 2 4 9 4 4 9 4 2 8 6 3 1 2 4 7 2 6 7 7 9 11 4 4 8 5 6 5 7 5 3 7 6 6 6 5 4 4 4 4 3 3 3 3 2 2 2 3 4 3 4 4 4 4 3 3 5 6 7 7 7 8 8 7 7 7 9 9 9 8 8 6 7 7 7 6 6 5 6
13 3 0 3 5 1 0 1 0 2 2 7 4 7 2 1 4 5 6 1 2 5 7 3 7 5 1 7 4 7 7 11 7 6 6 5 4 5 8 6 7 7 6 4 4 3 3 2 2 1 2 3 3 4 3 5 4 4 4 5 5 5 6 5 6 6 7 8 8 7 7 7 9 9 8 9 10 8 8 7 7 7 7 6 5 6
7 2 0 2 1 2 2 1 2 1 0 5 7 6 7 4 7 1 3 3 3 4 4 2 2 4 6 7 5 5 5 11 12 5 3 7 6 9 8 7 6 5 4 5 5 4 3 2 2 2 3 2 2 2 3 2 3 3 4 4 6 7 7 7 6 6 5 6 7 7 8 9 8 7 8 8 9 8 9 9 7 7 7 6 6 7
2 6 2 1 2 1 1 3 12 4 2 1 2 3 1 3 3 4 6 3 4 4 1 8 1 7 7 7 8 10 10 10 8 5 7 9 9 8 7 6 7 7 7 5 5 4 3 3 2 2 2 2 1 1 2 3 2 3 4 5 5 4 5 5 7 7 8 6 8 7 7 6 8 9 9 9 10 8 9 8 8 8 7 7 5 6
4 2 5 2 1 2 3 3 9 9 7 1 2 4 1 0 2 4 2 5 5 5 4 3 5 5 8 8 9 13 14 11 8 8 5 6 8 8 8 7 6 6 6 6 5 4 4 4 3 2 1 1 0 0 1 3 5 5 4 5 7 9 8 7 7 7 7 7 7 10 10 9 8 9 8 9 8 10 9 8 7 6 7 6 6 7
4 1 7 2 2 5 5 2 1 6 6 7 8 7 8 6 4 7 9 3 2 3 5 3 9 6 9 4 11 14 13 10 4 5 6 7 7 6 7 6 5 5 5 4 4 4 4 4 3 1 0 0 1 1 3 2 3 3 4 5 6 7 7 8 7 7 7 6 8 9 9 8 7 8 8 9 8 9 8 7 7 7 7 8 5 6
6 3 9 4 6 5 2 1 0 0 2 1 3 8 7 4 6 4 8 6 2 2 4 3 2 10 8 5 10 11 10 3 2 3 7 7 6 6 6 5 4 5 5 5 4 4 4 4 3 3 3 3 4 4 3 3 4 4 4 3 3 5 5 5 6 5 7 7 8 8 8 8 8 8 9 10 8 9 8 7 7 6 9 8 6 4
6 5 6 2 1 3 4 2 1 1 1 2 3 1 2 8 4 3 3 6 7 2 3 2 5 8 5 4 8 6 5 4 4 4 7 7 7 5 4 4 4 4 3 2 2 2 3 2 1 2 3 4 3 3 4 4 3 3 4 4 3 4 5 4 5 6 7 7 8 8 8 8 8 9 9 10 8 9 7 7 7 6 8 8 6 8
5 2 9 3 3 3 5 3 3 0 1 2 1 2 1 1 4 2 4 2 1 7 7 6 14 6 5 2 2 2 4 5 5 5 6 8 6 4 4 3 3 3 2 3 4 4 3 3 5 6 6 5 4 3 3 3 4 4 4 3 5 4 4 5 4 7 6 8 9 7 8 8 8 9 9 9 8 9 8 8 8 7 8 8 7 6
4 5 9 8 9 9 9 11 16 15 8 1 0 0 2 6 4 3 2 2 6 4 6 4 12 5 5 2 1 3 2 5 5 7 4 6 6 7 5 3 3 3 4 4 4 4 8 8 5 4 5 4 4 4 4 4 4 4 4 4 4 6 5 5 5 6 8 7 10 8 8 8 7 8 9 9 8 9 8 8 7 7 6 7 9 7
3 2 6 10 15 15 17 12 2 13 5 9 12 13 9 6 7 4 3 4 15 7 7 13 20 5 5 3 3 5 2 5 5 4 4 4 4 5 5 3 3 4 4 5 6 5 3 4 7 7 5 5 4 4 4 5 5 4 5 5 4 5 7 6 6 6 8 7 8 8 7 8 7 8 8 8 8 7 7 7 7 7 8 5 7 8
4 6 9 10 11 12 3 3 7 13 13 16 14 10 9 8 8 10 10 18 5 7 13 15 2 1 9 2 3 6 7 5 6 4 5 5 5 5 3 2 2 2 3 3 4 6 9 8 6 6 6 5 6 5 5 4 5 6 7 7 6 6 6 6 7 7 7 8 7 8 7 6 6 7 7 7 7 7 7 7 6 6 6 6 7 7
9 11 11 9 10 4 1 6 9 8 10 8 10 13 12 10 10 15 20 17 8 13 19 2 7 13 9 7 9 10 6 5 1 1 4 4 4 2 3 3 3 4 4 5 9 8 8 9 8 7 7 7 6 7 7 6 5 4 4 5 6 6 7 7 8 8 8 8 8 7 7 6 6 6 7 7 8 8 7 7 6 6 6 6 7 6
8 9 7 10 9 4 2 7 9 11 5 4 9 12 14 14 18 23 22 15 13 16 15 2 6 7 0 6 9 9 5 5 5 3 3 4 4 4 2 2 4 5 8 10 11 10 9 9 7 8 8 8 9 8 7 6 6 6 7 6 6 7 6 7 7 8 7 8 7 7 7 7 6 7 7 8 8 8 7 7 7 7 7 7 7 7
5 4 7 5 6 4 2 3 1 5 9 8 7 11 14 18 22 22 16 12 11 15 13 7 11 17 6 7 6 6 8 3 1 5 5 6 1 1 3 4 6 9 10 11 9 9 8 7 7 7 9 11 10 10 8 7 7 7 7 8 8 7 6 6 7 7 8 8 7 8 8 8 8 8 8 7 7 7 8 8 7 8 8 7 7 7
3 1 1 5 6 2 1 5 4 3 2 4 6 9 15 19 17 11 10 6 7 17 8 7 15 19 2 9 6 5 4 3 6 8 8 6 4 4 5 7 8 10 10 11 11 7 6 9 9 11 14 12 10 10 10 10 10 9 10 8 8 7 6 6 7 8 7 8 8 8 9 9 9 9 8 8 8 8 7 7 7 8 8 8 8 6
5 6 5 5 6 4 2 6 6 5 3 3 8 19 21 12 12 9 12 12 18 15 10 13 22 2 9 5 6 2 6 9 10 10 9 7 5 7 8 9 10 10 11 10 10 10 10 12 14 15 13 9 11 13 12 11 10 11 10 10 8 7 8 8 9 9 9 8 9 9 8 8 9 9 9 8 8 7 7 8 8 8 8 8 6 7
8 9 5 4 7 3 1 6 4 5 8 12 14 9 12 16 15 10 12 17 18 11 15 16 10 3 6 6 9 10 10 10 12 13 10 7 6 6 8 8 10 11 9 9 9 11 13 11 11 12 13 12 11 11 9 10 10 8 6 8 7 10 9 9 8 9 9 8 8 8 8 8 9 10 9 8 8 8 8 8 8 6 6 6 6 7
12 10 6 3 4 2 2 4 4 10 10 13 2 8 19 15 14 21 23 18 17 18 18 15 13 4 9 11 11 10 10 10 5 5 6 5 5 8 10 12 12 11 12 12 11 11 13 14 13 10 8 11 12 9 9 8 7 7 8 9 10 8 9 8 8 8 9 10 9 8 9 9 9 9 9 8 8 7 7 8 7 7 6 6 6 7
13 13 6 3 5 5 4 7 5 13 9 3 3 2 1 9 12 10 11 9 8 9 14 19 22 15 8 8 6 5 6 5 4 4 7 8 7 9 9 11 12 11 11 12 13 14 13 13 15 15 14 5 7 9 10 11 9 10 8 6 8 7 7 8 9 9 9 10 10 10 10 10 10 10 9 9 8 8 8 7 8 8 6 6 6 5
12 7 8 4 0 7 5 8 10 5 8 5 7 3 9 10 6 10 11 13 16 15 16 18 16 9 9 5 7 9 3 2 6 9 6 8 10 11 14 13 12 13 14 13 11 12 7 5 6 5 4 7 9 10 10 8 9 9 9 9 8 9 8 8 9 10 10 11 11 11 11 11 12 11 11 9 9 9 8 9 7 6 5 8 6 6
9 14 5 10 2 5 8 1 1 5 12 17 5 1 5 5 8 6 6 14 8 15 14 15 14 9 8 7 7 5 1 2 11 14 6 10 13 14 11 9 7 6 7 9 5 5 4 4 3 4 8 8 9 9 8 10 11 11 11 11 10 11 10 11 12 11 12 12 12 11 11 11 12 12 11 10 11 10 8 6 5 6 5 8 8 7
5 4 8 13 5 5 3 7 7 10 17 2 7 8 8 8 10 7 3 14 7 10 10 13 14 11 12 13 6 6 4 9 15 8 4 11 12 10 10 11 11 11 8 5 5 5 4 5 6 7 7 9 10 10 10 11 12 12 13 12 13 13 13 14 13 14 14 13 11 10 10 10 10 11 12 11 10 9 10 9 8 6 5 5 6 7
7 4 5 5 5 8 9 6 10 5 7 4 7 5 9 9 12 8 2 15 1 9 11 12 13 14 13 14 8 9 10 12 15 5 7 11 9 6 8 11 11 9 6 4 4 5 5 5 7 6 9 12 13 11 13 13 13 13 13 13 11 13 15 16 15 12 10 9 10 9 9 9 10 10 11 11 9 8 8 7 8 7 7 6 6 7
5 0 5 14 10 6 9 4 3 7 5 5 6 5 8 11 12 8 15 12 4 7 7 9 11 12 10 5 8 8 12 14 10 3 4 2 2 4 5 4 5 4 5 4 5 4 5 7 10 13 15 13 12 13 13 13 13 14 13 13 13 16 17 13 10 11 11 11 10 10 10 8 9 11 9 9 10 9 8 7 8 8 8 8 6 7
1 5 2 5 8 11 11 9 10 6 7 10 1 11 12 9 4 18 8 2 7 5 2 9 11 8 6 10 10 11 13 12 3 2 2 3 3 4 2 3 3 1 1 1 2 3 4 4 5 4 3 3 9 10 11 12 14 12 12 12 17 17 10 10 10 10 11 12 11 10 9 9 7 7 9 9 9 10 8 6 6 7 8 7 8 9
14 11 11 11 3 6 4 6 0 11 7 13 13 1 5 10 9 4 2 0 3 5 8 5 6 7 7 7 10 11 10 8 4 5 6 6 4 5 4 3 4 4 3 1 2 2 4 5 5 4 4 4 7 8 10 11 12 11 11 15 13 6 8 8 8 9 9 9 9 8 8 8 9 9 8 9 8 11 10 8 8 7 7 9 8 9
7 8 3 4 8 11 10 10 12 10 8 13 19 13 10 9 6 9 7 6 2 3 6 6 7 7 9 9 9 10 10 9 5 5 4 5 6 5 4 4 3 3 3 2 1 2 3 4 3 4 4 5 7 8 10 13 13 11 11 12 5 7 8 9 9 9 9 9 9 9 8 8 8 8 8 9 9 9 11 10 8 7 7 7 8 8
10 13 10 16 5 8 11 13 4 6 16 16 13 7 16 15 5 8 8 8 7 6 5 3 8 7 9 10 8 8 5 7 9 4 6 7 6 6 6 5 4 4 3 2 2 1 2 3 4 4 3 4 6 7 9 9 13 11 13 8 8 9 11 10 10 10 9 9 8 8 8 7 8 8 8 8 10 11 10 10 9 9 5 6 7 8
2 3 5 8 5 4 5 4 2 1 1 8 2 2 9 15 5 3 6 6 5 6 10 9 8 8 8 6 6 3 7 5 5 5 5 4 5 5 3 3 3 2 1 0 0 1 1 2 3 4 5 3 5 6 6 7 9 14 10 7 9 9 10 11 11 11 10 9 9 9 10 10 8 7 7 8 6 7 9 12 10 9 8 7 8 9
2 2 2 3 1 8 8 13 9 6 2 8 10 1 1 0 5 5 3 5 5 6 7 4 3 4 6 6 8 9 7 4 4 5 5 4 5 5 5 5 1 0 0 1 0 2 2 3 3 4 4 5 4 5 4 5 2 2 5 8 7 8 10 10 11 10 10 10 9 8 9 11 10 8 7 6 6 5 6 6 7 9 10 10 11 9
3 4 7 2 7 12 14 3 1 3 3 6 8 5 3 5 5 7 6 2 2 3 4 5 3 2 4 5 9 7 6 5 6 6 4 6 6 4 3 2 1 0 0 1 1 3 3 4 5 5 5 6 4 4 4 4 4 5 7 7 8 9 11 11 11 12 11 10 9 9 9 9 10 11 9 7 7 8 6 5 6 12 14 14 13 11
5 10 6 8 9 6 3 1 1 7 2 3 4 6 6 8 11 9 6 3 4 5 3 2 2 4 7 6 5 5 5 5 6 4 4 4 3 3 3 3 3 4 3 4 4 5 7 5 5 5 5 5 4 4 4 4 4 6 8 8 9 11 12 11 10 10 10 10 9 9 8 7 9 8 8 8 6 4 4 7 9 8 5 1 1 4
9 10 2 5 5 8 14 10 9 4 3 8 9 15 15 8 5 6 4 4 5 6 6 6 1 0 3 2 4 5 5 3 4 4 4 4 5 4 3 4 4 4 4 3 3 4 3 5 5 5 5 4 4 4 5 5 4 4 6 7 8 10 12 11 10 9 9 8 8 8 8 8 8 7 7 8 8 8 5 3 4 2 4 4 5 6
11 9 9 10 10 13 11 6 12 12 9 6 11 9 6 6 8 9 11 11 8 5 7 8 5 1 1 0 1 4 4 2 3 4 4 3 4 4 4 4 5 5 6 4 4 3 4 3 2 3 4 4 4 4 4 4 4 5 5 7 8 10 11 11 10 9 9 9 9 9 9 8 9 8 8 7 9 11 9 7 4 6 6 5 6 9
Wind_Direction
128 165 192 200 198 187 185 184 161 231 223 202 123 137 229 225 281 279 261 264 287 153 228 217 231 238 249 251 265 289 89 224 259 250 244 243 233 232 235 231 230 231 234 235 215 214 211 212 213 213 209 213 210 211 206 207 211 209 208 201 212 206 193 188 189 191 189 195 200 209 208 211 202 208 208 212 205 202 200 197 202 205 209 206 212 223
143 192 212 196 194 187 178 152 147 231 242 243 249 278 284 151 250 243 223 353 319 171 276 216 240 260 257 267 264 258 144 233 225 236 242 240 231 229 228 236 233 235 271 286 243 220 207 208 210 208 209 205 206 213 203 209 211 208 208 207 210 195 195 198 196 192 194 198 199 196 208 203 199 201 208 216 206 206 200 200 207 213 209 203 204 204
192 213 139 125 117 130 158 155 191 224 240 235 224 243 253 257 235 284 255 286 312 126 257 46 227 256 257 256 256 187 214 240 228 215 230 228 238 236 233 237 244 258 253 244 246 234 216 211 209 202 207 210 210 205 204 210 207 208 207 211 207 200 196 202 198 192 202 200 199 193 194 191 206 224 214 210 194 187 198 203 208 213 210 202 207 206
185 216 170 142 133 153 181 189 196 219 244 232 245 231 228 226 141 271 281 162 12 135 276 179 221 273 277 280 260 233 215 241 234 217 232 212 227 232 228 221 227 235 240 238 233 227 217 211 209 206 210 211 204 207 209 206 206 207 210 208 205 203 201 200 199 200 203 197 193 198 185 194 182 188 203 205 185 186 199 213 207 215 208 199 209 213
164 139 155 155 165 176 188 200 207 200 231 231 203 207 232 199 235 180 249 61 316 15 91 72 338 291 255 270 285 258 230 253 266 241 259 257 239 243 277 282 231 235 231 238 243 238 220 214 214 207 209 200 204 208 207 203 204 204 208 208 203 202 201 202 197 198 186 160 158 147 83 87 129 19 137 190 228 205 199 204 208 217 214 209 205 211
212 206 144 164 181 191 194 202 214 174 224 247 227 202 217 220 221 243 319 144 40 285 310 175 306 280 283 257 243 255 357 257 252 219 244 244 245 236 242 242 242 238 232 229 234 228 219 221 228 223 210 204 211 213 210 204 203 203 207 203 204 205 202 202 198 190 175 181 178 170 182 193 202 213 203 216 217 193 208 217 193 208 204 213 220 215
190 195 167 179 181 195 202 210 210 172 202 200 254 194 224 228 214 128 152 112 192 199 281 35 200 268 324 290 244 269 324 266 281 246 249 248 250 238 235 240 236 230 237 239 249 244 222 224 220 226 219 213 211 217 206 204 205 206 204 198 198 202 204 201 194 181 179 187 191 192 197 202 206 215 228 155 142 176 212 200 202 211 205 211 213 219
144 176 191 185 184 192 199 209 214 181 183 232 247 160 201 180 178 202 177 190 221 268 307 47 138 211 281 274 266 274 316 284 293 266 253 248 244 241 239 240 236 232 227 226 229 229 225 222 210 214 211 209 214 209 194 200 202 203 203 195 196 198 198 195 185 181 187 192 195 197 204 205 207 211 205 167 191 192 175 183 209 190 191 200 212 213
160 180 181 191 191 192 209 201 165 178 183 218 221 150 162 191 207 175 174 191 233 177 261 310 215 234 254 266 309 354 273 276 262 260 257 242 239 238 239 241 237 234 229 220 229 228 221 219 217 216 213 218 218 201 197 200 200 200 200 198 192 195 192 192 182 183 192 197 194 196 196 203 212 188 179 165 143 151 156 143 139 141 138 120 129 163
289 179 186 185 181 204 180 181 194 170 183 263 120 82 83 76 65 129 157 141 323 146 248 230 181 215 277 272 321 338 238 259 259 250 243 238 239 243 249 250 244 245 237 224 226 230 231 229 230 226 247 246 219 211 206 209 200 198 190 194 190 199 192 188 185 186 192 194 187 193 195 199 188 151 129 150 154 151 154 146 150 138 133 132 107 87
191 344 157 173 203 184 156 213 172 180 195 120 126 85 50 49 73 35 70 101 65 253 250 233 271 171 282 245 208 185 219 198 234 265 271 271 281 265 251 250 243 231 229 229 229 232 235 243 232 212 209 217 216 203 188 195 192 191 193 193 197 200 191 186 188 185 191 189 190 195 192 191 178 172 159 148 144 135 140 152 160 150 132 117 110 103
22 30 127 227 95 79 166 179 34 181 148 141 150 135 98 26 25 34 333 44 192 260 263 256 204 151 205 291 268 240 276 237 208 224 248 274 271 265 264 260 256 246 236 236 234 243 241 233 212 186 212 207 204 186 198 201 194 195 197 193 202 202 194 189 189 187 190 187 192 193 185 186 181 172 173 177 177 175 170 165 158 145 124 110 100 94
291 206 239 339 226 160 154 166 205 109 189 139 127 139 163 230 73 236 27 231 217 210 246 356 156 330 246 233 262 280 261 268 224 224 236 247 272 278 279 278 268 252 256 241 233 224 204 202 194 198 213 203 200 198 199 200 193 197 197 195 199 208 194 194 187 189 188 187 190 186 183 185 176 179 180 180 175 175 167 162 149 153 146 143 113 112
261 286 247 251 55 224 158 181 172 140 217 170 171 165 163 161 174 208 237 340 332 284 273 289 129 271 253 281 245 250 258 246 234 233 240 244 253 264 276 306 302 270 230 223 215 210 203 201 202 202 195 199 208 217 214 210 199 197 197 199 201 212 191 190 187 190 187 192 187 183 181 180 174 182 180 179 172 176 169 165 163 165 161 158 154 143
172 221 234 154 214 156 173 198 169 154 137 212 149 168 178 140 161 196 179 204 219 212 291 275 90 235 130 243 247 245 261 303 244 261 259 258 257 265 281 285 285 282 258 226 216 210 214 223 217 218 219 230 237 248 251 241 227 196 208 199 206 210 199 188 194 187 190 187 183 183 182 176 177 175 176 176 172 165 159 162 149 146 144 138 147 133
206 201 295 326 315 161 174 217 148 119 146 210 186 52 152 212 140 177 202 151 194 230 270 233 210 186 185 249 283 248 268 285 268 260 275 275 268 262 273 263 257 258 255 242 235 248 253 240 236 242 242 232 232 238 248 234 203 187 211 203 213 212 197 193 186 190 185 183 177 178 176 178 171 162 150 136 138 148 151 151 146 142 136 131 127 121
87 243 316 311 46 118 193 113 211 165 187 201 102 205 223 86 105 88 59 81 100 44 258 165 316 283 298 315 282 312 323 274 268 266 267 269 285 306 259 253 248 248 249 247 234 237 250 263 252 225 223 236 235 249 227 222 199 195 193 183 190 186 174 187 188 181 178 170 170 178 171 160 157 155 157 153 146 138 128 127 128 128 128 123 121 122
163 171 33 130 183 296 147 163 111 55 159 100 184 226 182 132 103 147 205 359 107 207 257 82 213 284 31 262 307 333 294 272 267 255 260 274 287 272 250 242 233 234 238 252 256 253 256 252 251 245 225 211 204 207 211 216 205 198 186 175 169 161 172 182 171 167 167 163 165 160 158 159 159 153 145 142 139 135 126 120 118 121 123 128 128 120
120 82 270 337 343 280 31 89 85 345 338 169 194 184 148 214 229 285 123 209 169 227 266 303 273 269 188 231 331 301 248 260 265 263 261 271 259 247 253 252 249 257 275 263 254 259 258 239 227 213 209 225 225 224 222 206 183 183 187 178 173 180 181 171 166 159 156 157 151 152 149 144 134 130 129 128 129 132 129 131 130 124 125 121 122 120
103 141 295 333 127 280 13 111 200 191 356 74 49 170 313 120 208 133 200 161 124 252 81 286 41 238 205 216 212 256 261 246 260 292 244 238 244 252 248 242 234 230 230 234 236 236 236 247 245 234 225 222 227 217 198 164 154 172 177 167 170 162 158 154 153 151 145 141 135 127 119 117 127 132 133 137 136 131 129 133 130 129 127 132 125 114
162 118 169 264 298 91 184 205 216 158 156 144 131 205 243 5 248 109 39 138 185 186 189 223 291 270 249 214 205 227 241 246 223 248 257 259 258 246 243 238 237 232 228 225 218 214 217 225 232 243 259 283 316 317 166 166 173 175 171 171 169 161 162 158 153 143 138 134 132 132 133 131 130 127 127 124 124 122 125 126 128 127 131 120 117 121
108 118 161 133 87 205 241 246 189 174 189 176 170 200 180 125 133 174 237 45 102 149 228 142 254 265 269 209 203 222 239 245 226 210 255 262 252 251 254 245 230 243 243 231 220 207 209 218 228 243 341 20 111 154 178 189 157 171 179 171 168 157 159 149 146 139 134 131 131 129 128 125 123 127 125 122 121 119 125 128 129 134 128 121 131 129
140 130 103 159 209 189 209 30 266 162 68 204 178 215 179 175 116 133 207 240 35 272 105 164 271 258 242 199 211 219 234 238 239 218 252 267 281 272 262 259 245 223 224 220 215 214 210 203 202 197 191 192 188 192 194 179 175 175 167 156 160 146 142 139 133 128 129 126 124 122 122 125 126 125 124 119 122 124 129 131 131 137 126 129 131 126
89 98 89 327 301 306 303 310 54 13 37 300 273 64 165 198 201 188 171 180 169 204 217 258 249 263 280 217 222 244 285 295 278 229 247 272 279 285 282 278 254 241 229 200 201 204 209 202 181 163 192 210 212 199 195 189 172 161 159 158 138 136 126 116 123 125 122 118 116 124 125 123 127 124 127 127 133 133 138 135 132 127 125 129 133 130
145 266 119 95 25 349 339 333 331 334 120 202 186 205 189 88 63 130 99 63 202 219 189 155 245 261 271 322 252 258 291 294 286 266 210 257 278 296 295 277 258 237 167 178 192 195 188 192 193 203 203 200 203 200 192 184 176 163 159 150 145 131 131 126 130 126 127 129 126 129 129 131 135 133 133 134 137 138 136 133 129 131 132 133 129 126
149 176 136 146 158 169 197 202 211 211 188 211 257 1 218 182 138 141 226 195 226 263 149 191 248 240 281 340 298 293 328 302 267 249 254 225 262 301 316 270 225 203 206 201 204 192 205 207 208 212 217 214 209 195 188 189 179 169 155 154 143 139 130 136 133 137 136 140 135 139 139 140 138 140 139 138 138 137 135 134 135 134 133 135 129 121
162 170 184 180 183 190 204 206 82 107 113 192 209 186 201 197 188 152 107 146 221 198 186 223 230 193 234 275 339 288 280 245 273 281 281 312 284 260 256 257 209 205 207 209 210 220 227 226 219 216 213 209 197 198 194 185 180 173 160 150 151 150 145 147 143 144 140 144 139 141 146 145 143 140 138 138 134 130 132 134 135 136 138 138 128 125
111 176 208 195 206 213 147 138 201 156 181 208 192 197 193 177 174 177 188 223 142 84 242 234 63 268 240 251 263 260 255 253 256 280 315 286 269 254 263 261 236 214 224 220 225 219 218 219 218 215 215 208 204 198 200 195 186 177 171 165 161 155 149 150 146 146 144 142 142 144 145 140 137 135 132 130 128 132 132 130 132 132 129 129 120 117
163 197 212 175 221 189 180 156 159 164 193 197 184 191 190 184 178 197 220 220 128 204 238 161 169 228 221 205 225 228 220 220 208 221 223 243 257 220 173 184 204 226 233 227 230 224 220 219 212 210 210 211 199 200 197 187 186 179 174 163 159 161 166 156 151 152 150 145 146 147 138 132 130 126 128 130 131 133 135 134 133 129 123 113 107 102
148 219 183 174 199 149 182 169 169 168 176 139 185 198 198 188 202 211 221 216 203 230 238 186 252 255 161 220 229 247 232 218 242 220 245 221 219 185 161 199 232 238 231 232 232 226 222 221 210 207 207 207 205 201 193 186 185 181 174 174 173 169 169 155 156 150 149 149 147 141 140 138 137 138 136 137 140 139 137 136 134 126 116 108 106 106
174 244 116 132 157 214 148 103 211 183 162 191 209 200 197 205 214 217 221 223 230 258 260 304 292 274 214 208 226 250 263 262 321 281 261 260 289 118 174 217 229 233 234 236 240 233 224 218 216 210 211 213 203 199 190 187 184 178 178 180 178 175 164 157 149 152 152 153 149 146 144 143 145 141 145 144 135 139 139 135 130 120 113 111 109 108
87 163 39 104 151 260 184 143 172 105 137 183 217 215 215 213 218 223 226 203 211 235 235 257 262 254 169 213 219 223 256 245 244 252 253 253 211 179 194 225 228 237 239 238 237 234 224 220 216 214 216 211 200 192 191 187 185 180 186 178 176 165 154 153 155 156 159 151 151 154 154 153 148 146 146 142 145 144 138 130 126 122 122 120 113 111
146 125 126 127 136 234 254 144 125 110 89 289 249 226 215 207 207 213 224 216 219 219 218 232 244 153 190 185 177 223 205 219 229 233 245 251 215 199 211 221 228 234 238 238 234 226 222 219 217 217 217 202 198 197 197 182 175 191 183 174 171 148 159 163 163 160 157 158 158 161 157 152 150 147 148 151 146 143 138 132 126 128 129 125 128 120
136 135 159 176 165 204 13 136 120 108 207 226 232 209 168 193 197 196 224 220 229 203 225 229 242 134 125 153 184 209 202 216 213 228 216 217 200 217 236 235 232 233 238 241 231 224 225 223 225 221 214 207 202 197 183 182 184 178 162 157 152 163 169 164 166 161 157 155 160 158 154 153 153 153 151 147 145 144 139 135 135 129 123 123 121 115
159 162 166 146 125 133 157 88 119 216 229 233 353 167 184 190 175 201 219 217 220 223 237 252 254 182 182 191 197 207 209 227 237 249 265 240 192 200 212 222 229 228 230 232 233 230 225 221 222 220 208 207 195 176 164 178 170 154 155 163 164 170 164 166 158 159 159 161 160 159 158 159 159 152 150 149 147 143 140 136 131 130 133 130 127 124
163 166 139 55 115 72 104 157 185 225 234 335 295 340 147 156 203 201 250 254 257 240 231 237 238 233 214 223 249 248 227 252 331 257 235 251 209 212 217 226 227 220 225 228 224 231 223 217 215 209 213 173 153 175 178 177 161 159 163 153 162 162 167 163 165 164 163 167 169 167 166 161 157 154 152 151 148 144 142 141 142 138 136 119 105 100
163 111 146 134 265 154 187 186 221 348 331 272 247 210 163 182 134 171 228 244 225 220 218 235 243 232 235 216 208 237 264 346 283 270 227 229 238 227 220 226 218 219 221 233 222 234 237 239 232 217 152 163 176 169 180 162 157 153 150 160 167 165 167 167 172 174 175 175 172 171 169 166 160 158 156 154 149 149 148 144 137 132 135 120 121 122
157 158 190 140 243 125 122 161 352 268 254 239 226 203 172 158 169 159 177 262 231 224 217 227 237 232 237 227 211 215 74 321 279 262 207 222 232 239 238 245 261 254 245 244 249 245 241 212 173 165 166 165 175 176 162 161 160 156 159 168 167 169 174 177 184 180 179 180 177 173 170 169 164 158 156 157 157 152 146 136 126 138 144 135 137 126
31 74 157 167 154 75 119 158 200 208 238 200 169 181 179 142 120 112 75 266 242 195 213 208 231 227 225 233 209 140 149 238 254 262 194 212 230 232 241 246 237 239 244 243 233 241 216 193 173 164 155 162 176 180 163 160 160 162 174 174 176 178 180 187 185 183 183 179 172 170 168 164 162 160 157 157 154 150 148 150 147 138 122 119 117 121
108 120 105 78 145 186 169 175 219 214 242 212 193 189 173 142 114 93 45 257 191 175 201 189 213 221 220 226 171 173 190 239 255 251 199 208 217 224 214 238 252 261 273 249 241 214 190 154 126 149 168 183 190 166 164 162 170 177 177 182 175 183 191 192 189 179 167 161 164 164 164 165 162 162 158 152 145 146 143 136 132 136 129 124 125 122
140 60 178 187 174 175 171 233 337 282 253 227 212 161 141 143 119 130 208 231 224 203 186 177 209 219 216 186 140 193 226 221 242 179 190 297 301 257 237 257 269 281 274 259 238 177 157 179 177 183 191 193 172 167 168 168 170 183 184 178 181 197 198 185 169 164 165 160 161 164 165 163 165 158 153 148 146 138 134 140 138 134 131 130 124 116
123 125 336 78 159 175 190 190 224 253 239 181 272 156 158 98 187 205 217 188 159 210 228 180 204 220 181 173 187 205 229 231 217 120 275 260 217 255 272 296 315 341 352 289 200 178 178 184 210 209 206 172 165 166 167 171 182 185 181 182 198 201 173 162 164 159 158 162 163 162 159 156 148 145 141 139 136 135 130 123 125 131 132 130 128 123
175 159 183 180 153 51 68 198 1 256 239 146 120 93 272 177 223 181 152 240 193 178 169 216 197 227 157 201 209 214 235 259 230 219 236 250 247 252 253 251 242 230 219 154 158 214 163 178 202 203 179 155 161 168 173 175 184 186 185 199 202 159 151 150 148 150 152 152 152 154 151 147 147 143 143 143 143 137 134 137 133 134 135 132 128 125
183 149 167 202 185 168 171 181 206 223 108 158 139 176 201 204 194 157 124 179 225 174 179 168 227 205 191 187 202 224 231 242 271 231 247 259 247 263 277 265 267 276 282 285 268 211 180 187 183 173 159 161 168 172 175 178 185 188 193 204 146 144 138 143 147 145 148 151 151 148 148 148 144 141 144 145 142 139 138 142 141 140 144 145 137 135
212 198 185 185 186 153 192 208 218 172 159 183 176 166 182 201 166 182 155 171 174 235 201 166 211 214 193 197 199 198 216 224 230 202 187 227 224 227 229 233 224 235 237 234 244 187 174 182 172 155 155 173 174 182 184 187 187 185 196 185 144 152 152 147 146 146 149 150 149 147 145 141 146 150 150 155 150 146 145 142 148 141 154 146 142 139
227 178 91 91 235 272 306 224 99 34 276 205 290 232 192 192 178 154 174 164 224 184 169 185 209 202 203 198 174 205 215 224 218 230 232 253 243 253 262 288 271 248 265 298 58 102 154 110 128 149 175 193 189 186 192 197 191 192 192 143 153 149 147 144 145 151 151 151 153 156 154 147 147 150 154 154 158 156 157 155 158 152 154 154 145 146
251 146 75 165 186 161 244 225 178 198 161 200 215 162 328 287 196 172 182 201 202 177 200 237 179 190 189 169 197 210 221 184 206 228 212 233 245 244 229 233 277 6 204 212 281 121 109 125 141 173 184 196 211 193 193 194 207 157 117 151 141 142 142 147 150 149 153 158 158 157 160 156 154 153 154 157 152 152 158 162 157 154 149 154 147 143
266 188 167 175 147 175 227 229 170 189 178 212 204 192 227 228 217 217 211 190 172 180 181 201 160 166 143 185 205 201 220 196 197 219 202 215 222 227 236 247 270 200 30 136 143 135 130 155 177 189 193 205 201 183 168 165 153 133 139 143 149 144 146 152 160 160 164 163 162 165 167 164 159 156 157 164 163 158 160 170 166 160 159 165 163 156
148 125 201 177 185 249 351 19 77 87 100 236 237 239 231 201 197 210 203 147 143 146 175 162 203 186 178 210 173 173 180 213 203 189 194 227 240 238 221 203 188 188 177 161 181 170 178 179 185 191 190 201 171 154 153 154 138 148 152 152 151 154 154 161 161 161 162 164 164 169 169 162 163 163 159 157 162 163 165 170 172 170 154 70 308 205
105 188 176 113 192 218 217 211 140 143 221 239 222 213 217 209 171 175 143 175 189 180 178 165 173 64 193 175 159 170 191 201 199 178 205 213 215 213 205 197 190 180 194 202 168 175 180 182 185 185 192 180 154 161 166 161 148 152 151 148 155 157 161 158 157 159 170 171 172 168 164 163 163 163 161 161 161 149 111 63 86 80 147 149 151 129
178 183 151 180 187 219 226 188 182 207 220 221 211 210 183 160 160 165 189 194 204 199 175 160 153 134 126 158 189 160 174 170 210 175 201 220 236 220 199 180 182 197 197 178 158 190 196 203 176 168 181 176 161 166 159 150 158 159 162 163 164 167 164 159 161 170 172 176 184 179 170 164 165 169 168 167 154 136 139 132 126 124 132 141 134 132